User: anonymous   Login
Location: Unspecified
(0.0000°N, 0.0000°E)
Time: 15:14:58
(UTC+00:00)
Language:

Tiros 10 - Orbit

View from above orbital plane
View from above orbital plane
View from above satellite
View from above satellite

Ground track
Ground track

The orbit data is extracted from the following two-line orbital elements,

1 01430U 65051A   16043.51177744  .00000086  00000-0  39522-4 0  9994
2 01430  98.0857 217.2894 0055471 301.6957  57.8831 14.40125163652476
Epoch (UTC): 12 February 2016 12:16:57
Eccentricity: 0.0055471
inclination: 98.0857°
perigee height: 718 km
apogee height: 797 km
right ascension of ascending node: 217.2894°
argument of perigee: 301.6957°
revolutions per day: 14.40125163
mean anomaly at epoch: 57.8831°
orbit number at epoch: 65247

The dashed part of the orbit path shows where the satellite is in the earth's shadow,  

DLR